Regional Weather Roundup
Issued by NWS Little Rock, AR

Home | Current Version | Previous Version | Graphics & Text | Print | Product List | Glossary On
Versions: 1 2 3 4 5 6 7 8 9 10 11 12 13 14 15 16 17 18 19 20 21 22 23 24 25 26 27 28 29 30 31 32 33 34 35 36 37 38 39 40 41 42 43 44 45 46 47 48 49 50
000
ASUS44 KLZK 191805
RWRLZK

WEATHER ROUNDUP FOR ARKANSAS
NATIONAL WEATHER SERVICE LITTLE ROCK AR
100 PM CDT TUE AUG 19 2014

NOTE: "FAIR" INDICATES FEW OR NO CLOUDS BELOW 12,000 FEET WITH NO
SIGNIFICANT WEATHER AND/OR OBSTRUCTIONS TO VISIBILITY.

ARZ001-003-010-029-191900-
NORTHWEST ARKANSAS

CITY           SKY/WX    TMP DP  RH WIND       PRES   REMARKS
FAYETTEVILLE   SUNNY     90  65  43 W12       29.93S HX  92
6HR MIN TEMP:  72; 6HR MAX TEMP:  90;

FORT SMITH     SUNNY     91  73  55 VRB3      29.89F HX  99
6HR MIN TEMP:  70; 6HR MAX TEMP:  91;

HARRISON       MOSUNNY   89  68  49 W6        29.93S HX  93
6HR MIN TEMP:  77; 6HR MAX TEMP:  90;

BENTONVILLE    SUNNY     90  66  45 W9        29.94F HX  92
6HR MIN TEMP:  72; 6HR MAX TEMP:  90;

ROGERS         SUNNY     90  64  42 SW13      29.93F HX  91
6HR MIN TEMP:  71; 6HR MAX TEMP:  90;

SILOAM SPGS    SUNNY     88  68  51 SW12      29.93F HX  91
6HR MIN TEMP:  70; 6HR MAX TEMP:  88;

HIGHFILL       SUNNY     90  65  43 W7        29.92F HX  92
6HR MIN TEMP:  71; 6HR MAX TEMP:  90;

SPRINGDALE     MOSUNNY   90  68  48 SW86      29.94F HX  93
$$

ARZ004-005-016-191900-
NORTH CENTRAL ARKANSAS

CITY           SKY/WX    TMP DP  RH WIND       PRES   REMARKS
BATESVILLE     MOSUNNY   93  66  40 W3        29.88R HX  96
6HR MIN TEMP:  72; 6HR MAX TEMP:  93;

FLIPPIN        SUNNY     93  64  38 NW10      29.89S HX  95
6HR MIN TEMP:  70; 6HR MAX TEMP:  93;

MTN HOME       MOSUNNY   93  65  39 NW8       29.89F HX  95
6HR MIN TEMP:  69; 6HR MAX TEMP:  93;

$$

ARZ040-041-191900-
WEST CENTRAL ARKANSAS

CITY           SKY/WX    TMP DP  RH WIND       PRES   REMARKS
MENA           SUNNY     91  77  62 CALM      29.95F HX 105
MOUNT IDA      SUNNY     91  75  59 CALM      29.92F HX 101
6HR MIN TEMP:  65; 6HR MAX TEMP:  91;

$$

ARZ009-017-025-026-028-191900-
NORTHEAST ARKANSAS

CITY           SKY/WX    TMP DP  RH WIND       PRES   REMARKS
CORNING        LGT RAIN  90  73  58 S9        29.86F HX  98
JONESBORO      MOSUNNY   89  71  55 S12       29.88F HX  95
6HR MIN TEMP:  71; 6HR MAX TEMP:  89;

NEWPORT        PTSUNNY   84  73  69 S12       29.89F HX  90
6HR MIN TEMP:  70; 6HR MAX TEMP:  84; 6HR PCP:  0.51;

WALNUT RIDGE   MOSUNNY   88  72  58 S12       29.86F HX  94
6HR MIN TEMP:  72; 6HR MAX TEMP:  88;

BLYTHEVILLE    PTSUNNY   83  74  74 SW9       29.89F HX  89
6HR MIN TEMP:  72; 6HR MAX TEMP:  84;

$$

ARZ022-023-033-042-044-191900-
CENTRAL ARKANSAS

CITY           SKY/WX    TMP DP  RH WIND       PRES   REMARKS
LITTLE ROCK    MOSUNNY   91  74  57 S6        29.91F HX 100
6HR MIN TEMP:  70; 6HR MAX TEMP:  91;

N LITTLE ROCK  MOSUNNY   91  76  61 S6        29.91F HX 103
6HR MIN TEMP:  72; 6HR MAX TEMP:  91;

JACKSONVILLE   SUNNY     91  75  58 SW8       29.90F HX 101
6HR MIN TEMP:  69; 6HR MAX TEMP:  91;

SEARCY           N/A     88  76  67 CALM        N/A  HX  99
6HR MIN TEMP:  68; 6HR MAX TEMP:  88; 6HR PCP:  0.11;

HOT SPRINGS    SUNNY     89  75  63 SW7       29.93F HX  99
6HR MIN TEMP:  69; 6HR MAX TEMP:  89;

RUSSELLVILLE   MOSUNNY   90  75  61 VRB7      29.90F HX 100
6HR MIN TEMP:  68; 6HR MAX TEMP:  90;

CLINTON        FAIR      95  73  49 W5        29.89S HAZE    HX 105
$$

ARZ036-191900-
EAST ARKANSAS

CITY           SKY/WX    TMP DP  RH WIND       PRES   REMARKS
WEST MEMPHIS   CLOUDY    81  75  82 S6        29.90F HX  87
6HR MIN TEMP:  71; 6HR MAX TEMP:  83; 6HR PCP: TRACE;

$$

ARZ050-053-066-070-073-191900-
SOUTHWEST ARKANSAS

CITY           SKY/WX    TMP DP  RH WIND       PRES   REMARKS
ARKADELPHIA    FAIR      90  79  70 SW7       29.93F HX 106
6HR MIN TEMP:  69; 6HR MAX TEMP:  90;

CAMDEN         MOSUNNY   91  77  62 SW8       29.94F HX 105
TEXARKANA      MOSUNNY   88  77  69 S5        29.95F HX 100
6HR MIN TEMP:  73; 6HR MAX TEMP:  89;

EL DORADO      PTSUNNY   88  77  69 S8        29.96F HX 100
6HR MIN TEMP:  73; 6HR MAX TEMP:  89;

DE QUEEN       SUNNY     89  77  67 S10       29.91F HX 101
6HR MIN TEMP:  68; 6HR MAX TEMP:  89;

$$

ARZ056-057-069-191900-
SOUTHEAST ARKANSAS

CITY           SKY/WX    TMP DP  RH WIND       PRES   REMARKS
PINE BLUFF     MOSUNNY   88  74  63 SW7       29.93F HX  96
6HR MIN TEMP:  69; 6HR MAX TEMP:  89;

STUTTGART      MOSUNNY   88  75  66 SW8       29.93F HX  97
6HR MIN TEMP:  70; 6HR MAX TEMP:  88; 6HR PCP:  0.01;

MONTICELLO     MOSUNNY   89  77  67 SW8       29.94F HX 101
6HR MIN TEMP:  73; 6HR MAX TEMP:  90;


$$




USA.gov is the U.S. government's official web portal to all federal, state and local government web resources and services.